Vorticity
nan nan nan nan nan nan nan nan nan nan nan nan nan nan nan nan nan nan nan nan nan nan nan nan nan nan nan nan nan nan nan nan nan
nan 11 10 8 8 9 9 9 10 8 7 8 8 7 6 7 7 7 7 9 8 10 10 9 11 10 8 8 7 7 7 8 nan
nan 10 11 8 10 11 9 9 11 10 9 9 7 6 5 8 8 6 7 8 9 8 9 10 10 10 9 7 7 8 6 7 nan
nan 9 11 9 10 13 10 9 11 9 10 8 8 8 8 6 9 9 6 5 8 9 9 10 9 9 9 8 7 7 7 8 nan
nan 10 8 11 12 10 12 11 9 9 8 9 8 8 8 7 8 10 7 6 6 9 10 11 10 9 8 8 7 8 8 7 nan
nan 11 7 15 20 14 11 10 9 9 9 9 8 8 8 8 8 9 9 8 7 6 9 11 11 10 9 8 9 8 8 8 nan
nan 6 11 13 12 12 11 11 10 8 9 11 9 8 8 8 8 8 9 9 9 8 8 9 10 10 10 9 9 9 9 8 nan
nan 11 11 15 12 10 11 10 9 9 11 10 10 9 7 8 7 9 9 10 9 9 10 10 11 10 10 11 9 9 11 9 nan
nan 15 18 14 12 9 9 10 10 9 9 11 9 8 9 8 9 9 9 9 10 9 9 12 12 12 11 8 9 12 11 8 nan
nan 14 17 16 15 8 7 10 10 10 9 10 10 8 9 9 9 9 10 10 9 11 8 10 11 10 10 9 9 13 9 7 nan
nan 10 15 18 8 15 13 10 10 10 10 10 9 9 8 10 9 9 10 10 9 10 11 9 9 10 9 6 13 18 16 7 nan
nan 6 10 9 12 12 16 16 10 11 10 10 9 9 9 9 10 10 11 10 9 8 10 10 10 10 10 12 12 10 13 6 nan
nan 10 15 9 9 13 14 12 16 12 8 9 7 8 9 10 10 10 10 12 10 10 11 9 10 10 10 13 15 13 5 4 nan
nan 12 9 11 15 12 10 13 14 11 11 10 10 10 10 12 13 11 10 11 13 12 9 10 11 11 13 13 11 13 8 5 nan
nan 12 15 17 13 12 14 16 13 12 9 12 12 12 13 12 12 11 16 13 10 10 10 11 11 8 8 10 12 14 16 8 nan
nan 15 16 17 22 13 14 24 19 13 10 11 16 16 14 13 13 14 14 9 6 9 11 10 9 9 10 10 11 16 19 10 nan
nan 9 10 11 15 21 23 13 18 21 24 18 13 12 12 13 13 11 9 10 10 10 8 9 10 10 9 10 9 9 10 13 nan
nan 9 9 11 7 5 10 21 20 21 19 17 14 11 10 9 11 8 3 9 16 12 14 16 12 12 13 10 9 14 14 10 nan
nan 12 9 8 8 8 6 -2 17 23 15 13 8 7 9 7 9 9 6 5 5 8 21 22 20 15 9 8 19 19 13 10 nan
nan nan nan nan nan nan nan nan nan nan nan nan nan nan nan nan nan nan nan nan nan nan nan nan nan nan nan nan nan nan nan nan nan
CAPE
0 0 4 17 4 63 63 184 591 935 1074 961 1186 1274 1446 1411 1237 1111 975 373 1032 1141 1291 1349 991 1076 560 44 0 0 0 0 0
0 0 0 0 36 66 122 220 567 903 1332 1231 1368 1565 1234 1471 1554 1307 1123 849 946 1129 1014 1099 913 1058 437 65 3 2 10 0 0
2 0 0 0 2 118 246 220 610 1040 1415 1448 1651 1818 1647 1433 1434 1625 1211 828 1206 1064 873 1003 915 825 540 146 14 72 15 4 0
19 10 8 0 4 120 289 357 795 1198 1442 1435 1748 1969 1883 1868 1645 1384 1496 1230 1256 1410 846 587 859 711 662 305 87 26 0 1 3
114 100 3 8 1 71 259 524 940 1143 1665 1674 1771 2102 2106 2028 2035 1836 1510 1410 1453 1197 1201 643 823 710 897 655 243 32 80 0 0
0 0 0 0 23 77 303 570 807 1269 1632 1949 2092 2178 2206 2396 2240 2151 1864 1511 1544 1479 1253 698 697 633 1007 862 452 157 85 11 0
9 19 0 0 45 115 443 671 831 1306 1527 2157 2236 2450 2422 2449 2479 2343 2279 1920 1640 1556 1604 984 820 778 711 972 686 251 207 73 0
4 60 2 2 58 181 561 827 870 1216 1703 1983 2322 2487 2667 2618 2607 2560 2543 2338 2043 1773 2066 1292 939 604 784 620 701 493 255 188 31
0 0 6 76 128 332 610 875 930 1087 1562 2252 2363 2615 2699 2723 2782 2703 2679 2718 2566 2037 1957 1990 1072 724 524 591 716 583 241 238 134
0 0 137 190 266 517 613 906 1025 1017 1515 2088 2550 2707 2873 2898 2776 2725 2687 2723 2700 2599 2070 1733 1514 923 773 691 732 500 52 91 184
0 0 1 298 308 446 688 922 1103 1195 1310 1815 2442 2608 2833 3023 2910 2750 2690 2729 2768 2642 2575 2044 1885 1328 1006 856 487 87 34 111 156
0 0 0 3 240 457 487 675 965 1217 1317 1559 1861 2292 2589 2795 2828 2622 2684 2611 2764 2582 2648 2413 2250 1564 1119 859 562 0 0 42 89
0 0 0 0 0 336 1096 541 790 989 1192 1481 1653 1921 2250 2648 2694 2543 2547 2669 2688 2700 2665 2610 1848 1352 1059 668 327 0 1 0 0
508 281 35 0 0 0 347 1211 714 742 941 1232 1541 1808 1996 2208 2543 2563 2540 2745 2738 2842 2455 2189 1713 987 297 154 164 19 9 0 0
737 443 438 1579 28 0 0 576 1004 799 782 937 1269 1482 1595 1609 2221 2421 2772 2735 2540 2252 1850 1689 1281 673 340 178 120 65 0 0 0
1731 1775 1857 2025 2077 992 2197 900 1287 1114 939 941 954 1046 1537 1995 2462 2721 2584 2266 1934 1502 1353 1169 749 618 220 92 76 0 0 0 0
151 72 159 101 532 1898 2727 2420 1771 1290 1148 1218 1571 2567 3015 2721 2367 2034 1805 1371 1334 982 812 681 482 461 334 257 131 0 0 0 0
0 0 0 0 0 0 0 1927 3123 3036 2839 3199 3060 2640 2381 1990 1381 1418 357 0 323 389 246 397 438 257 253 299 205 6 0 0 0
0 0 0 0 0 0 0 0 423 3267 3154 2693 2210 1829 1749 1351 145 1 1 1 1 0 0 2 306 334 201 1 98 44 0 0 1
0 0 0 10 1 0 0 50 4 1309 1947 1891 2020 1831 1274 448 101 0 0 0 0 0 0 0 0 0 1 0 0 0 0 0 2